Location: Newark
(42.8481°N, 0.4872°E)
Time: 22:37:46
(UTC+00:00)

Transit 2A Rocket - Pass Details

Date: 27 October 2020
Orbit: 588 x 914 km, 66.7° (Epoch: 29 November)

Event Time Altitude Azimuth Distance (km) Brightness Sun altitude
Rises 20:12:06 0° 310° (NW) 3,205 9.1 -36.1°
Reaches altitude 10° 20:16:04 10° 281° (W) 2,188 8.1 -36.8°
Maximum altitude 20:17:55 12° 258° (WSW) 2,008 7.7 -37.2°
Enters shadow 20:19:14 11° 242° (WSW) 2,053 7.6 -37.4°
Drops below altitude 10° 20:19:43 10° 236° (SW) 2,106 - -37.5°
Sets 20:23:21 0° 205° (SSW) 2,939 - -38.1°
